www.pogodaiklimat.ru

Погода и климат >> Архив погоды >> Марокко >> Касабланка


АРХИВ ПОГОДЫ в Касабланке

Время (UTC), дата Ветер
(напр.,м/с)
 
Видим.   Явления Облачность Т
(С)
Тd
(С)
f
(%)
Тe
(С)
Тes
(С)
Комфортность P
(гПа)
Po
(гПа)
Тmin
(С)
Tmax
(С)
R
(мм)
R24
(мм)
S
(см)
09 13.09 С 5-7
{8}
15 км ясно +23.6 +13.8 54 +26 +29 жарко 1016.5 1009.8
12 13.09 С 4-9
{10}
15 км ясно +25.2 +13.5 48 +27 +38 жарко 1016.6 1009.9
15 13.09 С 6-9
{9}
15 км ясно +25.8 +14.5 50 +28 +32 жарко 1015.7 1009.0
18 13.09 С 6-9
{9}
10 км 1/0
[Ci fib]
+23.2 +15.4 62 +27 +28 душно 1016.1 1009.4 +26.5
06 14.09 ЮВ 1-1
{2}
10 км ясно +17.6 +15.3 86 +19 +19 по сезону 1016.6 1009.7 +17.5
09 14.09 Ю 2-2
{3}
8000 м 6/6 300 м
[Cu med, cong]
+22.1 +18.2 79 +27 +30 душно 1017.7 1010.9
12 14.09 С 5-5
{7}
10 км ясно +25.7 +17.7 61 +30 +38 душно 1016.9 1010.1
15 14.09 СЗ 5-5
{11}
10 км 6/6 300 м
[Cu med, cong]
+25.0 +18.6 68 +30 +32 душно 1016.4 1009.6
18 14.09 СЗ 6-6
{12}
10 км 8/8 480 м
[Cu med, cong]
+23.2 +19.2 78 +30 +30 очень
душно
1017.1 1010.2 +26.5
06 15.09 штиль 0 5000 м 1/1 480 м
[Cu med, cong]
+18.4 +16.4 88 +19 +19 по сезону 1018.5 1011.8 +18.4
09 15.09 ЮВ 2-3
{3}
10 км 3/3 480 м
[Cu med, cong]
+23.4 +17.4 69 +29 +33 душно 1019.5 1012.8
12 15.09 СЗ 5-9
{9}
10 км ясно +25.9 +17.4 59 +30 +39 душно 1019.4 1012.6
15 15.09 С 6-9
{10}
10 км ясно +25.2 +18.7 67 +30 +34 душно 1018.6 1011.9
18 15.09 С 7-9
{9}
10 км 4/4 480 м
[Cu hum]
+23.4 +19.3 78 +30 +30 очень
душно
1018.5 1011.8 +26.6
06 16.09 В 2-2
{2}
10 км ясно +19.4 +17.8 90 +22 +22 комфорт 1018.2 1011.4 +19.4
09 16.09 С 4-4
{7}
10 км ясно +23.6 +17.9 70 +28 +32 душно 1019.2 1012.4
12 16.09 СВ 5-5
{7}
10 км ясно +25.0 +18.5 67 -6 +1 очень
холодно
1018.7 1011.9
15 16.09 С 7-10
{11}
10 км 6/0
[Ci sp]
+25.3 +18.8 67 +30 +32 душно 1017.1 1010.4
18 16.09 СВ 4-7
{11}
10 км 10/0
[Ac As Ci sp]
+22.8 +18.8 78 +29 +29 очень
душно
1017.0 1010.2 +25.7
06 17.09 СВ 1-1
{3}
10 км 8/8 480 м
[Cu med, cong]
+20.3 +18.8 91 +25 +25 комфорт 1015.6 1008.7 +20.3
09 17.09 СВ 4-4
{7}
5000 м 6/6 480 м
[Cu med, cong]
+22.8 +19.0 79 +29 +30 очень
душно
1016.5 1009.6
12 17.09 С 5-5
{8}
10 км 6/6 480 м
[Cu med, cong]
+25.0 +19.0 69 +30 +33 душно 1016.3 1009.5
15 17.09 С 7-7
{13}
10 км 5/5 480 м
[Cu med, cong]
+24.4 +18.4 69 +29 +30 душно 1015.7 1008.9
18 17.09 С 5-5
{10}
10 км 6/6 480 м
[Cu med, cong]
+22.4 +18.2 77 +28 +28 душно 1015.5 1008.7 +25.7
06 18.09 С 3-3
{5}
10 км 9/9 480 м
[Cu Sc]
+21.0 +17.0 78 +25 +25 комфорт 1016.7 1009.9 +20.4
09 18.09 СВ 5-5
{7}
10 км 9/9 480 м
[Cu Sc]
+22.3 +17.2 73 +27 +27 душно 1017.9 1011.1
12 18.09 С 5-7
{10}
10 км 4/3 400 м
[Cu Sc]
+25.2 +15.6 55 +28 +33 жарко 1017.7 1015.6
15 18.09 С 6-10
{10}
10 км 4/4 480 м
[Cu med, cong Ci sp]
+24.8 +16.2 59 +28 +30 жарко 1016.7 1010.0
18 18.09 СВ 5-6
{10}
10 км 4/3 480 м
[Cu med, cong Ac As]
+22.5 +16.6 69 +27 +27 душно 1017.1 1010.3 +25.5
06 19.09 В 3-3
{5}
10 км 3/3 800 м
[Cu med, cong Ci sp]
+19.0 +16.4 85 +21 +21 комфорт 1016.8 1010.1 +19.0
09 19.09 СВ 6-7
{10}
10 км 6/6 480 м
[Cu med, cong]
+22.2 +16.8 71 +27 +27 душно 1017.7 1010.9
12 19.09 С 7-8
{12}
10 км 4/0
[Ci sp]
+24.5 +16.1 59 +28 +31 душно 1016.7 1009.9
15 19.09 СВ 7-11
{12}
10 км 3/1 480 м
[Cu hum Ci sp]
+23.9 +17.4 67 +28 +30 душно 1015.4 1008.7
18 19.09 С 9-10
{11}
10 км 9/8 480 м
[Cu med, cong Ci sp]
+22.2 +17.4 74 +27 +27 душно 1015.6 1008.9 +24.9
06 20.09 Ю 1-1
{1}
6000 м 8/0 300 м
[Ci sp]
+18.9 +16.5 86 +21 +21 комфорт 1015.0 1008.3 +18.9

 

Местоположение метеостанции Касабланка (Марокко): широта 33.57 долгота -7.67 высота над уровнем моря 57 м.

В архиве по умолчанию представлена погода в Касабланке за последнюю неделю. Архивные данные за месяц целиком и за предыдущие месяцы, начиная с января 2011 года, Вы можете получить, выбрав интересующий диапазон дат из раскрывающегося списка и нажав кнопку "Ввод!".


*Определитесь, кто Вы:
робот инопланетянин человек

Внимание! Время в таблицах - всемирное. Для получения местного времени необходимо прибавить поправку, которая равна 0 ч.

Смотрите также архив погоды в соседних городах и на ближайших метеорологических станциях:

Погода в Нуасере (Марокко) (24 км)
Погода в Мохаммедии (Марокко) (30 км)
Погода в Сеттате (Марокко) (69 км)
Погода в Рабате (Марокко) (99 км)
Погода в Хурибге (Марокко) (102 км)
Погода в Кенитре (Марокко) (128 км)
Погода в Касба-Тадле (Марокко) (174 км)
Погода в Бени-Меллале (Марокко) (178 км)
Погода в Мекнесе (Марокко) (201 км)
Погода в Сафи (Марокко) (204 км)

Пояснения к столбцам:

Ветер - указаны скорость ветра в м/с - средняя за 10 мин, порывы в срок и между сроками (в фигурных скобках) и направление, откуда дует ветер: С - северный, СВ - северо-восточный, В - восточный, ЮВ - юго-восточный, Ю - южный, ЮЗ - юго-западный, З - западный, СЗ - северо-западный.
Видимость - горизонтальная дальность видимости в метрах или километрах. При видимости от 1 до 10 км при отсутствии осадков обычно наблюдается дымка, при ухудшении видимости до 1 км и менее - туман. В сухую погоду видимость может ухудшаться дымом, пылью или мглою.
Явления - указаны атмосферные явления, наблюдавшиеся в срок или в последний час перед сроком; фигурными скобками обозначены явления, наблюдавшиеся между сроками (за 1-3 часа до срока); квадратными скобками обозначены град или гололедные отложения с указанием их диаметра в мм.
Облачность - указаны через наклонную черту общая и нижняя облачность в баллах и высота нижней границы облаков в метрах; квадратными скобками обозначены формы облаков: Ci - перистые, Cs - перисто-слоистые, Cc - перисто-кучевые, Ac - высококучевые, As - высокослоистые, Sc - слоисто-кучевые, Ns - слоисто-дождевые, Cu - кучевые, Cb - кучево-дождевые. Подробнее классификацию облаков см. в Атласе облаков (PDF).
T - Температура воздуха - температура, измеренная на высоте 2 м над землей.
Td - Температура точки росы - температура, при понижении до которой содержащийся в воздухе водяной пар достигнет насыщения.
f - Относительная влажность воздуха - влажноcть воздуха, измеренная на высоте 2 м над землей.
Te - Эффективная температура - температура, которую ощущает одетый по сезону человек в тени. Характеристика душности погоды. При расчете учитывается влияние влажности воздуха и скорости ветра на теплоощущения человека.
Tes - Эффективная температура на солнце - температура, которую ощущает человек, с поправкой на солнечный нагрев. Характеристика знойности погоды. Зависит от высоты солнца над горизонтом, облачности и скорости ветра. Ночью, в пасмурную погоду, а также при ветре 12 м/с и более поправка равна нулю.
P - Атмосферное давление - приведенное к уровню моря атмосферное давление.
Po - Атмосферное давление - измеренное на уровне метеостанции атмосферное давление.
Tmin - Минимальная температура - минимум температуры воздуха на высоте 2 м над землей.
Tmax - Максимальная температура - максимум температуры воздуха на высоте 2 м над землей.
R - Количество осадков - Количество выпавших осадков за период времени, мм. При наведении курсора мыши на число - период времени, за который выпало указанное количество осадков.
R24 - Количество осадков - Количество выпавших осадков за 24 часа, мм.
S - Снежный покров - Высота снежного покрова, см. При наведении курсора мыши на число - состояние снежного покрова и степень покрытия местности в баллах.